Crestview, FL

3:31 AM CDT on June 24, 2017 (GMT -0500)
Sikes

Weather History for KCEW - December, 2011

Change the Weather History Date:

Sunday, December 18, 2011

  Actual Average Record
Temperature  
Mean Temperature 49 °F -  
Max Temperature 63 °F 60 °F 79 °F (2006)
Min Temperature 32 °F 33 °F 21 °F (1981)
Degree Days  
Heating Degree Days 16    
Moisture  
Dew Point 31 °F    
Average Humidity 64    
Maximum Humidity 92    
Minimum Humidity 23    
Precipitation  
Precipitation 0.00 in - - ()
Sea Level Pressure  
Sea Level Pressure 30.34 in    
Wind  
Wind Speed 3 mph (NNE)    
Max Wind Speed 8 mph    
Max Gust Speed -    
Visibility 10 miles    
Events      
Averages and records for this station are not official NWS values.
T = Trace of Precipitation, MM = Missing Value Source: NWS Daily Summary

Daily Weather History Graph

Daily Weather History Graph

Search for Another Location

Airport or City:

Trip Planner

Search our weather history database for the weather conditions in past years. The results will help you decide how hot, cold, wet, or windy it might be!

Date:

Astronomy

Dec. 18, 2011 Rise Set
Actual Time 6:37 AM CST 4:47 PM CST
Civil Twilight 6:11 AM CST 5:14 PM CST
Nautical Twilight 5:41 AM CST 5:44 PM CST
Astronomical Twilight 5:11 AM CST 6:13 PM CST
Moon No Moon Rise 11:54 AM CST (12/18)
Length of Visible Light 11h 02m
Length of Day
10h 09m
Last Quarter, 42% of the Moon is Illuminated
Dec 18
Last Quarter
Dec 24
New
Jan 1
First Quarter
Jan 9
Full
Jan 16
Last Quarter

Hourly Weather History & Observations

Time (CST) Temp. Windchill Dew Point Humidity Pressure Visibility Wind Dir Wind Speed Gust Speed Precip Events Conditions
12:53 AM 37.0 °F - 32.0 °F 82% 30.35 in 10.0 mi Calm Calm - N/A   Clear
1:53 AM 39.9 °F 36.7 °F 32.0 °F 73% 30.35 in 10.0 mi NNW 4.6 mph - N/A   Clear
2:53 AM 39.2 °F 34.2 °F 32.0 °F 75% 30.37 in 10.0 mi North 6.9 mph - N/A   Clear
3:53 AM 39.0 °F 35.7 °F 30.9 °F 73% 30.36 in 10.0 mi North 4.6 mph - N/A   Clear
4:53 AM 37.0 °F 34.5 °F 30.0 °F 76% 30.37 in 10.0 mi North 3.5 mph - N/A   Clear
6:53 AM 35.1 °F - 30.0 °F 82% 30.40 in 10.0 mi Calm Calm - N/A   Clear
7:53 AM 42.1 °F - 30.9 °F 65% 30.41 in 10.0 mi Calm Calm - N/A   Clear
8:53 AM 48.2 °F - 32.0 °F 54% 30.41 in 10.0 mi Variable 5.8 mph - N/A   Clear
10:53 AM 57.0 °F - 30.0 °F 36% 30.39 in 10.0 mi NNE 8.1 mph - N/A   Clear
11:53 AM 60.1 °F - 28.9 °F 31% 30.35 in 10.0 mi NE 6.9 mph - N/A   Clear
12:53 PM 62.1 °F - 28.0 °F 28% 30.32 in 10.0 mi Variable 6.9 mph - N/A   Clear
1:53 PM 63.0 °F - 26.1 °F 25% 30.30 in 10.0 mi NNE 5.8 mph - N/A   Clear
2:53 PM 63.0 °F - 24.1 °F 23% 30.29 in 10.0 mi NE 5.8 mph - N/A   Clear
3:53 PM 62.1 °F - 26.1 °F 25% 30.30 in 10.0 mi NE 3.5 mph - N/A   Clear
4:53 PM 51.1 °F - 36.0 °F 56% 30.31 in 10.0 mi Calm Calm - N/A   Clear
5:53 PM 45.0 °F 43.5 °F 36.0 °F 71% 30.33 in 10.0 mi North 3.5 mph - N/A   Clear
6:53 PM 39.9 °F - 34.0 °F 79% 30.35 in 10.0 mi Calm Calm - N/A   Clear
7:53 PM 37.0 °F - 34.0 °F 89% 30.34 in 10.0 mi Calm Calm - N/A   Clear
8:53 PM 36.0 °F - 33.1 °F 89% 30.32 in 10.0 mi Calm Calm - N/A   Clear
9:53 PM 35.1 °F - 32.0 °F 89% 30.32 in 10.0 mi Calm Calm - N/A   Clear
10:53 PM 35.1 °F - 32.0 °F 89% 30.32 in 10.0 mi Calm Calm - N/A   Clear
11:53 PM 32.0 °F - 30.0 °F 92% 30.30 in 10.0 mi Calm Calm - N/A   Clear